Weather in Tijuana

Mexico     32°31′13″N   117°01′17″W
temp.,
°C
wind,
m/s
gust,
m/s
humid.,
%
clouds,
%
prec.,
mm/h
press.,
hPa
HPBL,
m
13 may, thu
thu1323:00+17nw22740 0.0 1018364
02:00+16nw22795 0.0 1016279
05:00+16nnw22830 0.0 1016207
08:00+17nw117918 0.0 1017359
11:00+22w32540 0.0 1017660
14:00+22w53510 0.0 1016713
17:00+21wnw42530 0.0 1015622
20:00+18wnw33650 0.0 1015439
14 may, fri
fri1423:00+17nw22745 0.0 1016345
02:00+16nw227912 0.0 1014309
05:00+15nw228345 0.0 1015355
08:00+16nnw227538 0.0 1015503
11:00+20w32520 0.0 1015723
14:00+20w53510 0.0 1015696
17:00+20w32510 0.0 1013723
20:00+16w436915 0.0 1013532
15 may, sat
sat1523:00+15wsw227388 0.0 1015678
02:00+15nw116840 0.0 1014724
05:00+15wsw117117 0.0 1014513
08:00+15wsw216721 0.0 1014659
11:00+18wsw43550 0.0 1015807
14:00+19wsw54532 0.0 1014833
17:00+18wsw546016 0.0 1013822
20:00+16wsw446892 0.0 1015891
16 may, sun
sun1623:00+15w3368100 0.1 1015933
02:00+15w3367100 0.1 1014987
05:00+15w336585 0.1 1015967
08:00+15wsw2265100 0.0 1016985
11:00+16wsw436480 0.1 1017945
14:00+18wsw545635 0.0 10161051
17:00+17w546045 0.0 10151017
20:00+16w3365100 0.0 10161074
17 may, mon
mon1723:00+15w3370100 0.1 1017737
02:00+15w227399 0.1 1016586
05:00+15wnw227481 0.1 1016562
08:00+15wnw227183 0.1 1017719
11:00+18wnw445982 0.1 10171076
14:00+18wnw656169 0.0 1016993
17:00+18wnw546240 0.0 1015873
20:00+16wnw337084 0.0 1016777